Temperature
5 4 4 4 5 6 6 6 6 7 8 8 8 8 8 8 8 8 8 9 10 10 11 11 11 11 11 11 11 11 11 11 11 11 11 11 11 11 11 11 11 11 12 12
3 3 4 5 6 6 6 5 6 7 8 8 7 7 7 7 7 8 8 8 9 10 10 10 11 11 11 11 11 11 11 11 10 10 10 11 10 11 11 11 11 11 11 11
3 4 5 5 5 5 5 5 5 6 7 7 7 6 6 7 7 7 7 8 8 9 9 10 10 10 10 10 10 10 10 10 10 10 10 10 10 10 10 10 10 11 11 11
2 4 4 4 4 4 4 5 6 6 5 5 6 5 5 6 6 6 6 7 7 8 8 9 9 10 10 10 10 10 10 10 10 10 10 10 10 10 10 10 10 10 10 10
2 3 3 3 4 4 4 5 5 5 5 4 5 4 4 5 5 5 5 6 6 7 7 8 9 9 10 10 10 10 10 9 9 9 9 10 10 10 10 10 10 10 10 10
2 3 3 3 4 4 4 4 5 4 4 4 4 4 4 4 5 5 5 5 6 6 7 7 8 8 9 9 9 9 9 9 9 9 9 9 9 10 10 10 10 10 10 10
1 2 3 3 3 3 3 3 2 3 3 4 4 4 3 3 4 5 5 5 5 6 6 6 7 7 8 8 8 9 9 9 9 8 8 9 9 9 9 10 10 9 9 9
-1 -0 1 2 2 2 2 2 2 3 3 3 4 3 3 3 4 4 4 4 4 5 5 5 6 7 7 8 8 8 8 8 8 8 8 8 8 8 9 9 9 9 9 9
-2 -1 1 2 2 2 2 2 2 2 2 2 3 2 3 3 3 3 3 3 3 3 4 4 5 6 6 7 7 7 7 7 7 7 8 8 8 8 8 8 8 9 9 8
-2 -2 -0 1 2 2 2 1 1 1 2 3 2 2 1 1 2 2 1 1 2 2 3 4 4 5 5 6 6 6 7 7 7 7 7 7 7 7 7 8 8 8 8 8
-2 -3 -2 -1 -0 -0 0 0 0 0 1 1 1 1 1 1 1 0 0 0 1 1 2 2 3 4 4 5 5 5 6 6 6 6 6 6 7 7 7 7 7 7 8 7
-3 -4 -4 -2 -1 -0 -0 -1 -1 -0 -0 0 0 0 -0 -0 -0 -0 -1 -0 -0 0 1 1 2 2 3 4 4 4 5 5 5 5 6 6 6 6 6 6 7 7 7 7
-3 -4 -4 -3 -2 -2 -2 -2 -2 -2 -1 -1 -1 -1 -1 -1 -1 -1 -1 -1 -1 -1 -0 0 0 1 2 2 3 3 4 4 4 4 5 5 5 6 6 6 6 6 6 6
-2 -5 -5 -4 -4 -3 -3 -2 -2 -2 -2 -2 -2 -2 -2 -3 -2 -2 -2 -2 -2 -2 -1 -1 -1 -0 1 1 2 2 3 3 3 4 4 4 5 5 5 5 5 5 5 5
-4 -5 -5 -4 -3 -3 -3 -3 -3 -3 -3 -3 -3 -3 -3 -3 -3 -3 -3 -3 -2 -2 -2 -2 -2 -1 -0 0 1 1 2 2 3 3 3 4 4 4 4 5 5 5 5 5
-5 -5 -5 -4 -3 -3 -4 -4 -3 -3 -3 -4 -3 -4 -4 -3 -3 -3 -3 -3 -3 -3 -3 -3 -2 -2 -1 -1 -0 1 1 1 2 2 2 3 3 3 4 4 4 4 4 4
-5 -5 -5 -5 -4 -4 -5 -5 -5 -5 -5 -4 -4 -4 -4 -4 -4 -4 -4 -4 -4 -4 -4 -3 -3 -2 -2 -1 -1 -0 0 1 1 1 1 2 2 2 3 3 3 4 4 4
-5 -6 -6 -6 -5 -6 -5 -5 -5 -5 -5 -5 -5 -5 -5 -5 -5 -4 -4 -4 -4 -4 -4 -4 -3 -3 -2 -2 -1 -1 -1 -0 0 0 1 1 1 2 2 2 2 3 3 3
-5 -5 -6 -6 -6 -6 -5 -6 -6 -6 -6 -6 -6 -6 -6 -5 -5 -5 -4 -5 -5 -5 -4 -4 -4 -3 -2 -2 -2 -1 -1 -1 -0 -0 0 0 1 1 1 2 2 2 2 2
-6 -6 -7 -7 -7 -7 -6 -6 -6 -6 -6 -7 -7 -7 -7 -6 -6 -6 -5 -5 -5 -5 -5 -4 -4 -3 -3 -2 -2 -2 -2 -1 -1 -1 -1 -0 0 1 1 1 1 1 2 2
-7 -8 -8 -8 -8 -7 -7 -7 -6 -7 -7 -7 -7 -7 -7 -7 -7 -6 -6 -6 -6 -5 -5 -5 -4 -4 -3 -3 -3 -2 -2 -2 -1 -1 -1 -1 -0 0 0 1 1 1 1 1
-8 -8 -9 -9 -8 -8 -7 -7 -8 -8 -8 -8 -8 -8 -8 -7 -7 -7 -7 -6 -6 -6 -5 -5 -5 -4 -4 -3 -3 -3 -2 -2 -2 -2 -2 -1 -1 -1 -0 0 0 0 0 0
-9 -9 -9 -9 -8 -8 -8 -8 -8 -8 -8 -8 -8 -8 -8 -8 -7 -7 -7 -7 -7 -6 -6 -6 -5 -4 -4 -4 -4 -3 -3 -3 -2 -2 -2 -2 -2 -1 -1 -1 -0 -0 -0 -0
-9 -9 -9 -9 -9 -8 -8 -8 -8 -8 -8 -8 -8 -8 -8 -8 -8 -8 -7 -7 -7 -7 -7 -6 -6 -5 -5 -4 -4 -4 -3 -3 -3 -3 -2 -2 -2 -2 -2 -2 -1 -1 -1 -1
-10 -10 -10 -10 -9 -9 -8 -8 -8 -9 -8 -8 -8 -8 -8 -8 -8 -8 -8 -7 -7 -7 -7 -7 -6 -6 -6 -5 -5 -4 -4 -4 -3 -3 -3 -3 -3 -2 -2 -2 -2 -2 -2 -1
-10 -10 -10 -10 -9 -9 -9 -9 -9 -9 -9 -9 -9 -8 -8 -8 -8 -8 -8 -8 -8 -7 -7 -7 -7 -6 -6 -6 -5 -5 -5 -4 -4 -4 -4 -3 -3 -3 -3 -3 -3 -3 -3 -2
Wind_Speed
1 2 7 11 13 9 6 6 8 6 5 7 10 9 6 3 3 4 4 4 4 5 4 4 5 5 6 6 6 7 7 7 7 5 5 4 4 3 3 4 7 8 8 9
0 6 10 7 6 7 8 8 7 4 4 6 6 7 5 4 4 4 5 4 4 3 2 3 4 5 5 7 7 7 7 8 7 6 5 4 4 3 3 3 5 7 8 8
5 5 5 5 5 7 9 10 8 6 3 3 3 4 4 3 3 2 2 2 2 3 4 4 4 4 5 5 7 7 7 7 7 7 5 4 4 3 2 2 3 4 7 7
5 5 4 4 6 7 10 8 8 7 4 5 6 5 5 4 3 3 3 2 2 2 3 3 4 4 5 5 5 6 7 6 6 7 7 8 6 4 4 3 3 3 6 6
4 4 3 5 7 7 6 5 8 9 7 4 4 4 4 4 5 7 6 4 3 3 3 3 4 5 5 4 4 5 6 6 6 7 8 8 5 4 3 3 4 3 3 5
5 4 3 5 5 5 4 2 3 4 5 8 8 6 3 3 7 6 5 4 4 4 3 3 3 3 3 2 3 3 5 5 6 7 7 7 7 6 5 4 4 3 2 2
6 5 3 3 3 2 1 2 1 3 6 7 7 5 4 2 2 5 6 5 3 3 3 2 3 3 3 3 2 3 4 4 4 6 6 7 7 7 7 6 5 4 3 2
5 7 4 4 2 4 4 5 5 4 5 2 5 6 2 1 1 1 2 3 3 3 2 2 3 4 3 3 3 3 3 3 4 5 5 5 5 5 4 5 5 5 4 4
3 6 6 7 4 2 2 3 3 2 1 2 3 2 1 5 6 6 5 4 4 3 3 3 3 3 3 3 2 3 3 2 2 3 3 3 4 4 4 4 4 4 3 3
2 6 7 7 4 2 1 2 1 2 3 4 3 3 1 2 3 5 6 5 4 4 4 4 4 3 3 2 2 2 2 2 2 2 3 2 3 3 4 4 5 4 4 4
2 2 6 5 3 4 3 1 1 2 2 3 3 1 1 1 2 3 4 5 5 5 5 4 4 4 4 4 3 3 2 2 1 1 1 2 2 2 3 4 4 5 4 5
2 0 4 5 4 4 2 2 1 1 1 2 2 1 5 4 4 5 5 6 6 5 5 4 5 5 5 5 3 2 2 1 0 1 1 2 2 2 3 3 3 4 5 5
2 2 4 6 4 7 4 5 4 1 1 1 3 1 5 8 7 7 7 6 6 6 6 6 6 5 5 4 3 2 2 1 1 0 1 1 2 3 3 3 3 4 4 4
3 2 2 2 3 4 6 8 6 2 1 0 1 1 6 9 8 8 8 7 5 5 6 6 6 5 5 5 4 3 3 2 1 1 1 1 2 3 3 3 3 4 4 5
3 1 1 2 2 2 6 8 7 4 1 1 1 1 3 5 5 5 6 6 6 7 7 7 7 6 6 6 5 4 3 2 1 1 0 1 2 2 2 3 3 3 4 4
3 0 1 2 2 3 7 10 7 4 3 1 2 3 5 5 5 6 7 7 6 7 7 7 7 7 7 7 6 5 4 3 2 1 0 0 0 2 2 3 3 4 3 3
2 1 1 2 5 3 5 7 7 5 4 2 2 4 6 7 7 5 5 5 6 7 8 8 7 6 6 7 6 5 5 3 2 1 1 1 1 1 2 3 4 4 4 3
1 0 1 1 4 1 1 3 5 4 5 5 5 7 6 5 5 5 5 6 7 8 8 8 7 7 7 7 6 5 4 3 2 2 1 1 1 1 2 3 4 3 4 4
0 2 1 1 0 2 2 5 5 4 3 7 8 9 8 6 3 4 7 9 7 7 7 7 7 7 7 6 6 4 3 2 2 2 2 1 0 2 3 3 3 3 4 3
4 4 3 1 1 2 4 8 9 2 3 7 9 9 9 7 3 4 9 10 9 9 7 7 7 6 6 6 6 4 3 3 2 2 1 1 0 2 2 3 3 3 3 3
4 3 2 0 1 3 4 9 5 2 5 9 8 8 7 5 4 6 8 8 8 8 8 7 6 6 6 6 5 4 3 3 3 2 1 1 1 1 2 2 2 3 3 4
1 1 1 1 0 4 6 4 2 3 5 6 7 7 6 6 6 6 7 8 8 8 8 7 6 6 6 6 4 4 4 4 3 1 1 1 1 1 2 3 3 3 4 4
0 1 2 2 3 2 2 1 3 3 5 5 6 7 6 5 6 7 7 7 7 7 7 6 6 6 6 6 4 4 5 4 2 2 2 2 2 2 2 2 3 3 3 3
3 2 0 1 3 4 4 3 4 5 5 6 6 5 4 5 5 6 6 7 7 7 7 6 6 6 7 6 6 4 4 3 1 1 1 1 2 2 2 1 2 2 3 3
3 1 1 2 4 5 4 4 6 7 7 7 6 5 5 5 5 6 6 6 7 7 7 6 6 6 7 7 6 6 4 3 2 1 1 1 1 1 1 1 1 1 1 2
1 2 2 3 3 2 5 6 6 6 7 7 6 6 6 5 5 6 6 6 6 7 7 7 6 6 7 6 6 6 5 3 2 1 1 1 1 1 2 2 2 4 2 2
Wind_Direction
244 180 221 226 223 236 239 229 233 232 214 199 213 222 218 208 188 203 212 210 209 211 201 174 161 160 159 159 159 162 162 163 156 157 156 155 163 158 156 152 158 156 153 154
336 240 241 248 249 248 250 250 250 263 250 218 213 226 222 200 204 196 198 205 207 197 154 146 148 149 159 167 168 168 168 166 165 168 166 156 149 153 158 145 153 156 153 155
236 262 260 251 255 252 245 234 237 240 275 243 188 255 237 230 214 166 156 171 172 176 183 170 157 156 157 166 173 176 173 166 167 157 141 123 110 103 112 152 168 158 158 157
265 280 290 259 248 241 249 239 239 237 228 236 198 228 239 206 215 228 231 197 192 194 186 178 166 167 171 178 177 174 169 163 165 158 157 155 158 164 180 176 176 161 160 160
275 286 291 259 252 244 246 259 242 231 216 236 217 201 266 186 211 229 229 220 206 194 187 179 176 179 176 169 163 165 160 160 160 163 167 167 162 165 152 152 154 164 157 163
277 285 267 266 269 245 261 271 271 229 196 226 216 192 255 210 215 217 219 214 206 191 181 170 162 155 148 137 134 143 154 159 163 166 169 173 169 160 154 163 169 174 174 166
315 309 323 324 313 299 311 142 200 209 208 226 182 178 242 268 221 195 199 198 185 163 148 123 112 122 123 127 132 135 149 156 161 168 174 179 177 172 175 178 181 178 178 189
325 305 319 330 283 243 238 190 193 206 205 212 166 188 229 338 58 96 131 133 107 98 109 114 123 127 127 129 128 130 141 151 162 171 177 177 173 175 183 183 181 185 191 195
317 295 318 319 303 241 220 231 223 207 225 191 182 181 316 24 41 45 53 66 73 75 75 75 85 96 107 117 134 146 144 140 158 171 172 169 170 175 181 182 180 184 183 178
263 290 305 316 334 347 190 200 129 186 196 211 182 172 221 4 28 33 44 48 40 44 50 52 53 63 79 103 103 101 125 152 160 169 178 179 181 184 181 175 182 184 181 172
335 285 311 339 10 336 348 8 234 205 189 187 186 203 346 116 63 46 32 37 42 44 50 50 47 53 57 61 73 75 82 81 98 157 175 171 180 183 179 182 190 186 178 174
321 118 294 286 295 345 32 20 10 192 256 187 158 195 6 38 55 55 39 35 37 40 39 42 43 45 46 44 47 58 64 65 66 193 169 176 173 167 171 185 190 180 179 179
359 57 340 343 357 8 12 359 356 18 88 168 169 199 8 29 42 40 38 31 36 37 36 36 37 37 32 27 24 24 27 21 21 89 161 176 180 180 190 197 188 179 177 178
28 73 148 216 284 325 336 349 4 67 123 271 194 192 355 11 14 16 21 22 31 35 31 27 24 21 16 13 8 2 358 360 13 68 131 198 215 204 199 192 181 180 178 180
53 71 229 242 291 8 15 357 11 49 51 190 280 327 345 346 350 7 12 15 24 23 18 15 9 2 359 2 1 357 345 354 11 69 119 240 231 201 175 168 171 171 170 175
25 334 303 299 330 23 24 8 5 11 5 339 336 325 336 342 9 15 10 10 12 6 1 357 358 356 352 349 347 344 341 339 359 42 329 305 158 154 155 157 154 155 160 164
334 32 1 304 321 5 15 359 14 33 16 15 324 315 341 358 358 355 356 4 2 354 351 349 347 345 340 335 332 332 333 340 353 5 7 33 107 149 150 145 138 144 148 145
260 235 181 324 22 21 262 5 3 14 25 18 355 339 338 330 334 350 12 9 353 347 344 341 337 335 334 331 331 331 337 353 358 360 7 29 126 140 140 141 144 144 141 145
67 150 107 81 12 278 323 353 346 321 333 15 359 348 346 342 357 7 12 3 349 341 336 332 330 327 328 330 332 333 342 351 360 358 355 342 166 148 141 147 151 147 141 142
37 63 98 87 96 277 303 316 319 296 311 356 355 347 347 356 358 324 340 342 341 342 341 336 332 333 335 332 336 342 347 354 346 331 325 338 118 144 150 151 149 140 140 141
2 18 47 100 215 272 310 321 351 69 301 326 331 330 334 334 301 301 321 333 337 338 339 339 336 336 333 331 335 338 340 331 322 325 350 27 64 121 134 127 129 131 129 125
354 20 354 90 198 279 335 3 34 283 310 322 322 324 326 321 317 324 331 334 337 339 340 340 339 336 336 337 340 338 331 326 333 11 41 49 57 84 103 112 109 119 127 128
92 200 207 200 223 278 349 338 305 318 319 317 317 318 322 323 325 334 336 335 334 336 337 338 339 338 340 344 343 330 324 328 345 40 53 62 54 60 91 115 122 121 128 139
331 343 150 282 284 307 317 327 340 338 326 317 314 317 327 324 325 332 339 341 341 340 339 340 345 344 341 343 342 330 326 337 24 58 62 76 82 70 73 98 129 140 148 148
279 308 302 275 289 319 320 329 331 336 340 339 337 338 340 338 335 337 337 337 337 337 338 341 343 340 337 339 342 339 339 355 27 51 67 72 83 108 91 71 74 124 162 174
275 209 202 246 262 263 290 310 328 339 340 340 349 351 351 351 341 340 339 338 338 338 339 342 343 340 338 342 342 342 343 354 24 38 40 63 84 98 109 100 64 47 72 83
Height
1473 1476 1474 1471 1470 1470 1470 1471 1470 1468 1466 1468 1469 1470 1471 1471 1471 1472 1474 1474 1476 1477 1480 1483 1485 1488 1491 1494 1496 1499 1502 1505 1508 1510 1512 1514 1517 1520 1522 1525 1527 1529 1532 1534
1475 1474 1469 1469 1470 1470 1470 1470 1470 1467 1465 1466 1468 1469 1468 1469 1470 1471 1472 1473 1474 1475 1477 1480 1482 1485 1487 1490 1493 1496 1499 1502 1505 1507 1510 1513 1516 1518 1520 1523 1525 1527 1529 1532
1474 1471 1468 1469 1469 1469 1468 1470 1469 1468 1466 1464 1468 1470 1469 1468 1468 1469 1470 1471 1472 1473 1474 1477 1479 1482 1484 1487 1490 1493 1496 1499 1502 1505 1508 1511 1514 1516 1518 1520 1522 1524 1527 1529
1473 1469 1468 1467 1467 1467 1466 1464 1465 1466 1469 1470 1467 1472 1468 1467 1467 1467 1468 1468 1469 1471 1472 1474 1476 1478 1481 1484 1487 1490 1493 1496 1499 1502 1505 1507 1509 1511 1514 1517 1520 1522 1524 1527
1473 1469 1468 1466 1465 1465 1464 1461 1462 1463 1467 1470 1467 1472 1469 1465 1466 1465 1466 1466 1467 1469 1470 1471 1474 1476 1479 1482 1484 1487 1491 1493 1497 1500 1502 1505 1507 1510 1513 1515 1517 1519 1522 1524
1472 1469 1467 1465 1463 1463 1462 1462 1461 1462 1465 1469 1464 1469 1470 1466 1462 1462 1463 1464 1465 1466 1468 1469 1471 1474 1476 1479 1482 1485 1488 1491 1494 1497 1499 1502 1505 1507 1510 1512 1514 1516 1518 1520
1475 1469 1467 1465 1464 1462 1463 1467 1470 1467 1465 1462 1460 1466 1468 1463 1460 1460 1460 1461 1462 1463 1465 1466 1468 1471 1473 1476 1479 1482 1485 1488 1491 1494 1496 1499 1502 1504 1507 1509 1511 1513 1515 1517
1486 1478 1470 1467 1466 1465 1464 1465 1470 1467 1461 1461 1460 1465 1468 1462 1460 1459 1459 1460 1460 1461 1463 1465 1466 1469 1471 1474 1476 1479 1482 1485 1488 1491 1494 1496 1499 1501 1504 1506 1508 1510 1512 1514
1492 1482 1471 1468 1465 1464 1464 1465 1464 1466 1464 1464 1464 1467 1465 1462 1461 1460 1460 1459 1459 1461 1462 1464 1465 1467 1469 1472 1474 1477 1480 1482 1485 1488 1490 1493 1495 1498 1500 1502 1505 1507 1509 1511
1491 1489 1476 1470 1466 1464 1465 1465 1467 1468 1464 1460 1464 1467 1470 1466 1465 1463 1462 1461 1461 1461 1462 1463 1464 1466 1468 1470 1473 1475 1478 1480 1482 1485 1487 1489 1492 1494 1497 1499 1501 1503 1505 1507
1490 1492 1482 1475 1473 1472 1468 1468 1468 1468 1466 1464 1466 1474 1469 1468 1467 1466 1465 1464 1463 1462 1463 1463 1464 1465 1467 1468 1471 1473 1475 1477 1479 1482 1484 1486 1488 1491 1493 1495 1497 1499 1501 1503
1491 1493 1491 1482 1476 1473 1472 1473 1472 1471 1469 1468 1472 1479 1472 1469 1468 1468 1467 1466 1465 1464 1464 1464 1464 1465 1466 1467 1469 1471 1473 1475 1477 1479 1481 1483 1485 1487 1489 1491 1493 1495 1497 1500
1491 1495 1496 1487 1484 1480 1478 1477 1474 1473 1474 1473 1474 1480 1474 1472 1470 1470 1469 1468 1466 1465 1465 1465 1465 1465 1466 1466 1467 1469 1471 1472 1474 1476 1477 1479 1481 1483 1485 1487 1489 1491 1494 1496
1491 1496 1499 1500 1494 1489 1485 1480 1476 1476 1478 1478 1478 1479 1478 1475 1473 1472 1470 1469 1468 1467 1466 1466 1465 1465 1466 1466 1467 1468 1469 1470 1472 1473 1474 1476 1478 1480 1482 1484 1486 1488 1490 1492
1493 1498 1497 1494 1491 1489 1487 1484 1480 1481 1482 1483 1482 1481 1481 1479 1477 1475 1473 1471 1469 1468 1467 1467 1466 1466 1465 1465 1466 1467 1467 1468 1469 1470 1472 1473 1475 1477 1479 1480 1482 1484 1487 1489
1496 1498 1496 1494 1489 1487 1488 1488 1484 1484 1484 1485 1483 1483 1481 1479 1477 1475 1474 1472 1471 1469 1469 1468 1467 1466 1465 1465 1465 1465 1466 1466 1467 1468 1469 1470 1472 1473 1475 1477 1479 1481 1483 1485
1499 1499 1499 1498 1492 1489 1495 1495 1492 1491 1489 1488 1487 1487 1483 1479 1478 1477 1475 1474 1473 1471 1470 1468 1467 1466 1466 1465 1464 1464 1464 1465 1465 1466 1466 1467 1469 1470 1472 1474 1476 1478 1480 1482
1499 1499 1500 1499 1499 1506 1501 1497 1496 1494 1492 1491 1489 1487 1484 1481 1479 1478 1476 1475 1473 1471 1470 1468 1467 1466 1465 1464 1463 1463 1463 1463 1463 1464 1464 1465 1466 1468 1469 1471 1472 1475 1477 1479
1496 1497 1501 1503 1506 1503 1499 1498 1497 1496 1494 1492 1490 1487 1483 1480 1477 1476 1476 1475 1474 1472 1470 1468 1467 1465 1464 1463 1462 1461 1461 1461 1461 1461 1462 1463 1464 1465 1466 1468 1470 1472 1474 1476
1498 1498 1504 1507 1507 1507 1504 1499 1495 1496 1494 1492 1490 1487 1485 1481 1480 1479 1476 1475 1473 1471 1469 1467 1465 1464 1462 1461 1460 1459 1459 1458 1458 1459 1460 1460 1461 1463 1464 1465 1467 1469 1471 1473
1505 1507 1509 1510 1512 1506 1504 1499 1495 1501 1499 1494 1491 1488 1486 1484 1483 1480 1477 1474 1472 1470 1468 1466 1464 1462 1461 1460 1459 1457 1457 1456 1456 1457 1457 1458 1459 1460 1462 1463 1465 1466 1468 1470
1512 1513 1514 1513 1514 1512 1503 1500 1502 1502 1497 1493 1490 1488 1486 1483 1480 1478 1475 1473 1471 1468 1466 1464 1462 1460 1459 1458 1457 1455 1455 1454 1454 1454 1455 1456 1457 1458 1459 1461 1462 1464 1465 1467
1513 1513 1512 1512 1512 1506 1503 1502 1501 1498 1495 1492 1489 1486 1484 1482 1479 1477 1474 1472 1469 1467 1465 1463 1461 1458 1457 1456 1455 1454 1453 1452 1452 1452 1453 1454 1455 1456 1457 1458 1459 1461 1463 1464
1512 1510 1510 1510 1507 1505 1503 1501 1499 1497 1494 1490 1487 1485 1483 1480 1478 1475 1473 1471 1468 1466 1464 1462 1459 1457 1456 1455 1454 1452 1451 1451 1450 1451 1451 1452 1453 1454 1455 1456 1458 1459 1460 1461
1513 1511 1511 1509 1506 1503 1501 1500 1498 1495 1491 1488 1485 1483 1481 1479 1476 1474 1472 1470 1468 1465 1463 1461 1458 1456 1454 1453 1452 1451 1450 1449 1449 1449 1449 1450 1451 1452 1453 1454 1456 1457 1458 1460
1511 1511 1511 1508 1504 1504 1501 1499 1496 1493 1490 1487 1484 1481 1480 1478 1476 1473 1471 1469 1467 1464 1462 1460 1458 1455 1453 1452 1450 1449 1448 1448 1447 1447 1448 1448 1449 1450 1451 1452 1453 1455 1456 1458